PROBA-1 1 26958U 01049B 26071.94439196 .00002782 00000+0 18341-3 0 9993 2 26958 97.9645 77.1325 0057056 88.2853 272.4908 15.07051646329128 CUTE-1 (CO-55) 1 27844U 03031E 26072.00612833 .00000419 00000+0 20026-3 0 9998 2 27844 98.6777 81.7637 0010730 103.8440 256.3934 14.24269354177988 CUBESAT XI-IV (CO-57) 1 27848U 03031J 26071.52490780 .00000374 00000+0 18335-3 0 9993 2 27848 98.6808 81.0787 0010480 121.3489 238.8716 14.23563697177626 APRIZESAT 4 1 35684U 09041D 26071.75705416 .00001015 00000+0 12797-3 0 9996 2 35684 98.1481 145.1429 0042057 274.4584 85.1825 14.83715969897069 APRIZESAT 3 1 35686U 09041F 26071.98880971 .00001482 00000+0 13325-3 0 9999 2 35686 98.1899 220.7017 0062545 25.5879 334.8413 14.95912839901996 PROBA-2 1 36037U 09059B 26071.95275982 .00000342 00000+0 90359-4 0 9993 2 36037 98.2435 256.6404 0012518 213.5048 146.5359 14.54794032867530 APRIZESAT 5 1 37792U 11044E 26071.72865527 .00001722 00000+0 22560-3 0 9995 2 37792 98.2401 2.0818 0051494 314.5398 45.1613 14.80869015784516 APRIZESAT 6 1 37793U 11044F 26072.00665691 .00001129 00000+0 16656-3 0 9998 2 37793 98.2414 340.5283 0044063 35.1139 30.8050 14.76760778782953 PROBA-V 1 39159U 13021A 26071.89862109 .00000120 00000+0 70829-4 0 9995 2 39159 98.3510 55.2989 0005222 62.4357 297.7353 14.23574699667411 APRIZESAT 7 1 39416U 13066A 26071.81174510 .00002192 00000+0 22314-3 0 9990 2 39416 97.7596 26.4955 0036303 168.3941 191.8123 14.91294697666865 APRIZESAT 8 1 39425U 13066K 26071.81634479 .00001575 00000+0 17711-3 0 9994 2 39425 97.8120 20.7021 0044705 242.3179 117.3498 14.87434924665345 BUGSAT-1 (TITA) 1 40014U 14033E 26071.94182307 .00005103 00000+0 27795-3 0 9991 2 40014 98.0421 158.9506 0029405 147.3540 212.9516 15.14544660641264 SAUDISAT 4 1 40016U 14033G 26071.94466015 .00000972 00000+0 13492-3 0 9992 2 40016 97.7419 221.4942 0045495 28.2780 332.0887 14.79397144631840 APRIZESAT 9 1 40018U 14033J 26071.95874994 .00001220 00000+0 18639-3 0 9999 2 40018 97.8886 207.6031 0067047 148.7702 211.7517 14.74082838629380 APRIZESAT 10 1 40019U 14033K 26071.79657339 .00001073 00000+0 17608-3 0 9995 2 40019 97.9483 200.9997 0078141 220.8679 138.6653 14.70759231628082 TECHDEMOSAT-1 (TDS-1) 1 40076U 14037H 26071.96734773 .00011580 00000+0 68459-3 0 9993 2 40076 98.3776 54.7940 0005145 222.1917 137.8916 15.11652281633680 TECHNOSAT 1 42829U 17042E 26071.88714175 .00003831 00000+0 27808-3 0 9998 2 42829 97.4149 233.3152 0019279 65.3521 294.9711 15.04313146472228 FLYING LAPTOP 1 42831U 17042G 26071.97891887 .00005073 00000+0 40503-3 0 9994 2 42831 97.4276 231.5061 0019508 85.0278 275.3173 15.00545382472022 HAWK-A 1 43765U 18099H 26071.96082159 .00008471 00000+0 35435-3 0 9990 2 43765 97.4051 125.4831 0034262 263.5086 96.2249 15.23288089398440 HAWK-B 1 43794U 18099AN 26071.67336442 .00007363 00000+0 32523-3 0 9991 2 43794 97.4098 124.8080 0031251 282.4699 77.3041 15.21583272398357 HAWK-C 1 43799U 18099AT 26071.95031498 .00010032 00000+0 37836-3 0 9999 2 43799 97.4026 125.9304 0040366 265.4179 94.2448 15.26475154399225 SALSAT 1 46495U 20068K 26071.94691407 .00010457 00000+0 38231-3 0 9996 2 46495 97.8863 69.2667 0008098 282.5650 77.4683 15.28257479300659 HAWK-2C 1 47502U 21006CT 26071.67794494 .00007608 00000+0 23838-3 0 9990 2 47502 97.2418 117.9376 0007258 174.0356 186.0975 15.33336406284704 HAWK-2A 1 47505U 21006CW 26071.68141987 .00007652 00000+0 23961-3 0 9993 2 47505 97.2459 118.5615 0006803 176.6114 183.5176 15.33354842284709 HAWK-2B 1 47508U 21006CZ 26072.00455041 .00008324 00000+0 26035-3 0 9994 2 47508 97.2334 117.3715 0007498 173.7997 186.3340 15.33357171284757 HAWK-3B 1 48931U 21059BE 26071.49741272 .00042879 00000+0 49446-3 0 9993 2 48931 97.6726 259.6125 0005093 326.9798 33.1141 15.61820338262724 HAWK-3C 1 48948U 21059BX 26071.94564467 .00045344 00000+0 52180-3 0 9999 2 48948 97.6873 265.6044 0005387 327.1836 32.9086 15.61860728262793 HAWK-3A 1 48957U 21059CG 26071.75327949 .00044051 00000+0 50742-3 0 9996 2 48957 97.6807 262.6812 0005132 326.5155 33.5777 15.61842669262760 HAWK-5C 1 52754U 22057Y 26071.95712417 .00024494 00000+0 47439-3 0 9993 2 52754 97.6454 225.7728 0005463 65.4375 294.7443 15.47701066211443 HAWK-5B 1 52756U 22057AA 26071.37510149 .00024374 00000+0 47253-3 0 9990 2 52756 97.6458 223.4981 0005367 61.4594 298.7195 15.47673013211355 HAWK-5A 1 52757U 22057AB 26071.37482675 .00024409 00000+0 47317-3 0 9993 2 52757 97.6458 224.3320 0005835 63.5346 296.6501 15.47673058211358 HAWK-6B 1 55324U 23011A 26071.69159309 .00006634 00000+0 29306-3 0 9995 2 55324 40.5094 194.5006 0001565 56.7432 303.3527 15.21953990173134 HAWK-6C 1 55326U 23011C 26071.62539778 .00007151 00000+0 31515-3 0 9992 2 55326 40.4866 191.7485 0002091 34.4831 325.6113 15.21955737173132 HAWK-6A 1 55327U 23011D 26071.69101420 .00007115 00000+0 31363-3 0 9990 2 55327 40.4976 192.9761 0001725 31.0027 329.0883 15.21954738173141 HAWK-7A 1 56191U 23054P 26071.63944851 .00007448 00000+0 29010-3 0 9999 2 56191 97.2829 321.4330 0004076 44.0439 316.1124 15.26253545162294 HAWK-7B 1 56193U 23054R 26071.90162443 .00007351 00000+0 28636-3 0 9996 2 56193 97.2860 319.9163 0003529 55.1178 305.0392 15.26256080162338 HAWK-7C 1 56200U 23054Y 26071.63925684 .00007179 00000+0 27975-3 0 9992 2 56200 97.2833 320.4605 0003422 46.1364 314.0157 15.26252263162297